DW9918 Weather Reports


time (UTC)temp
C
wind
direction
speed
KPH
gust
KPH
rain 1hr
cm
rain 24hr
cm
rain mn
cm
humidity
%
barometer
mb
20260505184512 18 151 4.8 14.5 0.00 0.56 0.56 77 1011.7
20260505183012 18 164 4.8 12.9 0.00 0.56 0.56 77 1011.8
20260505181508 19 116 4.8 19.3 0.00 0.56 0.56 76 1011.6
20260505180015 19 126 8.0 16.1 0.00 0.56 0.56 75 1011.6
20260505174519 20 117 9.7 17.7 0.00 0.56 0.56 74 1011.6
20260505173016 21 99 8.0 12.9 0.00 0.56 0.56 73 1011.7
20260505171518 21 169 3.2 12.9 0.00 0.56 0.56 71 1011.6
20260505170015 21 136 6.4 17.7 0.00 0.56 0.56 68 1011.4
20260505164514 22 205 6.4 14.5 0.00 0.56 0.56 67 1011.4
20260505163018 22 172 3.2 12.9 0.00 0.56 0.56 68 1011.2
20260505161509 22 119 6.4 14.5 0.00 0.56 0.56 69 1011.4
20260505153018 22 139 6.4 14.5 0.00 0.56 0.56 69 1011.7
20260505151515 21 214 6.4 14.5 0.00 0.56 0.56 71 1011.8
20260505124510 18 116 22.5 27.4 0.00 0.56 0.56 78 1012.9
20260505123023 18 130 17.7 27.4 0.00 0.56 0.56 79 1013.1
20260505121532 18 105 19.3 25.7 0.00 0.56 0.56 78 1013.2
20260505120018 18 96 16.1 27.4 0.00 0.56 0.56 79 1013.2
20260505114516 18 107 16.1 25.7 0.00 0.56 0.56 74 1013.3
20260505113013 19 110 14.5 20.9 0.00 0.56 0.56 76 1013.5
20260505111508 17 111 11.3 16.1 0.00 0.56 0.56 78 1013.7
20260505101520 16 148 9.7 17.7 0.00 0.56 0.56 84 1014.0
20260505100018 15 108 9.7 16.1 0.00 0.56 0.56 91 1014.0
20260505094513 15 101 11.3 14.5 0.00 0.56 0.56 94 1014.1
20260505093027 14 98 9.7 19.3 0.05 0.56 0.56 94 1014.3
20260505091532 14 100 19.3 24.1 0.05 0.56 0.56 94 1014.3
20260505090037 14 98 14.5 19.3 0.03 0.53 0.53 94 1014.3
20260505084522 13 89 8.0 11.3 0.03 0.53 0.53 94 1014.6
20260505083015 13 122 8.0 16.1 0.03 0.48 0.48 94 1014.6
20260505081515 13 107 9.7 14.5 0.18 0.48 0.48 94 1014.4
20260505080041 13 102 9.7 12.9 0.36 0.48 0.48 93 1014.3
20260505074506 13 103 4.8 11.3 0.48 0.48 0.48 93 1014.3
20260505073004 13 89 4.8 6.4 0.46 0.46 0.46 92 1014.5
20260505071504 13 155 0.0 3.2 0.30 0.30 0.30 86 1014.7
20260505070020 14 153 0.0 8.0 0.13 0.13 0.13 83 1014.7
20260505064521 15 155 3.2 9.7 0.00 0.00 0.00 79 1014.5
20260505063015 15 107 4.8 11.3 0.00 0.00 0.00 80 1014.3
20260505061509 15 103 4.8 6.4 0.00 0.00 0.00 80 1014.0
20260505060008 14 90 1.6 4.8 0.00 0.00 0.00 81 1014.0
20260505054506 14 153 1.6 4.8 0.00 0.00 0.00 81 1014.0
20260505053026 13 162 0.0 1.6 0.00 0.00 0.00 81 1014.1
20260505051520 14 199 0.0 3.2 0.00 0.00 0.00 80 1014.2
20260505041509 15 178 0.0 8.0 0.00 0.00 0.00 69 1013.8
20260505040030 15 124 1.6 3.2 0.00 0.00 0.00 69 1013.8
20260505034526 15 130 0.0 6.4 0.00 0.00 0.00 70 1013.8
20260505033031 14 95 1.6 3.2 0.00 0.00 0.00 74 1013.9
20260505031517 15 113 3.2 4.8 0.00 0.00 0.00 74 1014.1
20260505030020 15 220 0.0 1.6 0.00 0.00 0.00 71 1014.0
20260505024513 15 237 0.0 3.2 0.00 0.00 0.00 71 1014.1
20260505023036 15 252 1.6 3.2 0.00 0.00 0.00 71 1014.2
20260505021527 15 216 0.0 4.8 0.00 0.00 0.00 67 1014.3
20260505020022 15 243 3.2 6.4 0.00 0.00 0.00 67 1014.4
20260505014532 15 233 3.2 6.4 0.00 0.00 0.00 68 1014.5
20260505013018 15 213 1.6 8.0 0.00 0.00 0.00 68 1014.6
20260505011514 15 203 0.0 4.8 0.00 0.00 0.00 69 1014.7
20260505010011 16 140 1.6 4.8 0.00 0.00 0.00 68 1014.8
20260505004513 16 181 3.2 11.3 0.00 0.00 0.00 67 1015.0
20260505003004 16 230 4.8 11.3 0.00 0.00 0.00 66 1015.1
20260505001504 16 221 3.2 8.0 0.00 0.00 0.00 65 1015.3
20260505000022 16 178 1.6 6.4 0.00 0.00 0.00 68 1015.5
20260504234518 15 239 3.2 8.0 0.00 0.00 0.00 69 1015.8
20260504233014 15 224 3.2 6.4 0.00 0.00 0.00 68 1015.9
20260504231511 15 210 0.0 4.8 0.00 0.00 0.00 67 1016.0
20260504230008 15 214 0.0 3.2 0.00 0.00 0.00 66 1016.2
20260504224506 16 167 0.0 3.2 0.00 0.00 0.00 65 1016.2
20260504223020 16 184 1.6 6.4 0.00 0.00 0.00 64 1016.3
20260504221523 17 245 3.2 9.7 0.00 0.00 0.00 63 1016.3
20260504220014 17 231 4.8 14.5 0.00 0.00 0.00 63 1016.4
20260504214514 17 229 9.7 16.1 0.00 0.00 0.00 66 1016.5
20260504213014 17 245 6.4 12.9 0.00 0.00 0.00 70 1016.5
20260504211513 16 233 3.2 9.7 0.00 0.00 0.00 76 1016.5
20260504210036 16 227 3.2 4.8 0.00 0.00 0.00 78 1016.5
20260504204532 16 247 0.0 0.0 0.00 0.00 0.00 78 1016.6
20260504203025 16 151 0.0 0.0 0.00 0.00 0.00 76 1016.4
20260504201514 17 150 0.0 0.0 0.00 0.00 0.00 75 1016.2
20260504200014 17 153 0.0 0.0 0.00 0.00 0.00 74 1016.1
20260504194528 17 109 0.0 0.0 0.00 0.00 0.00 73 1016.1
20260504193028 17 108 0.0 1.6 0.00 0.00 0.00 73 1016.1
20260504191525 17 127 0.0 3.2 0.00 0.00 0.00 71 1016.0
20260504190022 17 115 1.6 3.2 0.00 0.00 0.00 72 1015.8